Starlink 33707

operational
NORAD ID: 63401 Int'l Des: 2025-065 Owner: SPXS Country: US Constellation: starlink
LEOCIRCULAR

Über Starlink 33707

Beschreibung wird geladen...

Live-Position

3D-Globus wird geladen...

Nächste Überflüge

Höhenverlauf

Altitude vs Time

uPlot chart will show altitude changes over time

Zweizeiliger Elementsatz

1 63401U 25065C 25301.55790985 .00038952 00000-0 14176-2 0 9999
2 63401 42.9952 133.1624 0000246 134.3121 225.7751 15.27579060 32639
Epoch: 28. Okt. 2025 • Age: 23 hours

Aktueller Status

Höhe 496.0 km
Geschwindigkeit 7.62 km/s
Subsatellitenpunkt -42.62°S, 161.08°E
Startdatum 31. März 2025
Alter 0.5 years
Typ internet

Technische Details

Klassifizierung Payload
Masse 575.00 kg
Trockenmasse 530.00 kg
Gesamtmasse 575.00 kg
Länge 0.30 m
Durchmesser 4.10 m
Spannweite 29.00 m
Form Box + pan
Hersteller SPXS
Bus-Typ Starlink V2MO
Phasenstatus In Orbit
Besitzer/Staat SPXS/US

Große Konstellationen

Loading constellations...